STARLINK-1889 (47172 NORAD) Tracking and Keplerian Element Data

This shows tracking and keplerian element data for the satellite.

Feedback or suggestion? Click here.




ElementValue
Catalog47172
NameSTARLINK-1889
Epoch Orbit175
Epoch Day62.91667824
Epoch Year2021
RAAN249.4388
Inclination53.0597
Eccentricity0.0002417
Argument of Perigee97.3111
Mean Anonmoly263.0592
Mean Motion15.03954785
Decay Rate0.00015584
L11 47172U 20088BC 21062.91667824 .00015584 00000-0 11344-2 0 9991
L22 47172 53.0597 249.4388 0002417 97.3111 263.0592 15.03954785 1753

Live tracking and technical data element details for STARLINK-1889 (NORAD 47172). STARLINK-1889 can be tracked NOW for your location showing map with azimuth and elevation plus other details from your city location.

Track the satellite on the map from your city or location and see movement details for azimuth, elevation, latitude, longitude, range, height, and movement on the map or in text.







IsCatalogInMostPopularTable: catalog: 47172, numindb: 41
Update: records affected: 1



GetName: 47172 STARLINK-1889

Hit Count: updated at: Fri, 05 Mar 2021 06:46:58 GMT